| time (UTC) | temp C | wind direction | speed KPH | gust KPH | rain 1hr cm | rain 24hr cm | rain mn cm | humidity % | barometer mb |
| 20260508001550 | 11 | 265 | 6.4 | 16.1 | 0.10 | 1.85 | 1.85 | 97 | 1002.2 |
| 20260508000055 | 11 | 207 | 3.2 | 9.7 | 0.05 | 1.83 | 1.83 | 97 | 1002.0 |
| 20260507234555 | 11 | 144 | 0.0 | 0.0 | 0.05 | 1.80 | 1.80 | 97 | 1001.9 |
| 20260507233109 | 11 | 158 | 0.0 | 4.8 | 0.03 | 1.78 | 1.78 | 97 | 1001.8 |
| 20260507231548 | 11 | 158 | 1.6 | 4.8 | 0.00 | 1.75 | 1.75 | 97 | 1001.7 |
| 20260507230049 | 11 | 74 | 0.0 | 4.8 | 0.00 | 1.75 | 1.75 | 97 | 1001.5 |
| 20260507224548 | 11 | 97 | 1.6 | 3.2 | 0.00 | 1.75 | 1.75 | 97 | 1001.8 |
| 20260507223056 | 11 | 97 | 0.0 | 3.2 | 0.00 | 1.75 | 1.75 | 97 | 1001.4 |
| 20260507221545 | 11 | 97 | 3.2 | 4.8 | 0.00 | 1.75 | 1.75 | 96 | 1001.6 |
| 20260507220044 | 11 | 98 | 0.0 | 3.2 | 0.00 | 1.75 | 1.75 | 96 | 1001.7 |
| 20260507214546 | 12 | 98 | 0.0 | 1.6 | 0.00 | 1.75 | 1.75 | 96 | 1001.6 |
| 20260507213045 | 12 | 107 | 0.0 | 9.7 | 0.00 | 1.75 | 1.75 | 96 | 1001.7 |
| 20260507211550 | 12 | 77 | 1.6 | 8.0 | 0.00 | 1.75 | 1.75 | 96 | 1001.6 |
| 20260507210103 | 12 | 118 | 1.6 | 6.4 | 0.03 | 1.75 | 1.75 | 96 | 1001.8 |
| 20260507204547 | 11 | 130 | 0.0 | 9.7 | 0.03 | 1.75 | 1.75 | 96 | 1001.5 |
| 20260507203043 | 11 | 130 | 1.6 | 11.3 | 0.10 | 1.75 | 1.75 | 96 | 1001.8 |
| 20260507201539 | 11 | 113 | 1.6 | 9.7 | 0.23 | 1.75 | 1.75 | 96 | 1001.1 |
| 20260507200048 | 12 | 128 | 4.8 | 11.3 | 0.28 | 1.75 | 1.75 | 96 | 1001.5 |
| 20260507194547 | 12 | 117 | 4.8 | 11.3 | 0.33 | 1.75 | 1.75 | 96 | 1001.8 |
| 20260507193032 | 12 | 105 | 4.8 | 11.3 | 0.41 | 1.65 | 1.65 | 97 | 1002.1 |
| 20260507191528 | 12 | 35 | 3.2 | 9.7 | 0.41 | 1.55 | 1.55 | 96 | 1003.3 |
| 20260507190040 | 12 | 349 | 0.0 | 3.2 | 0.51 | 1.42 | 1.42 | 96 | 1003.5 |
| 20260507184533 | 12 | 349 | 0.0 | 4.8 | 0.71 | 1.42 | 1.42 | 96 | 1003.4 |
| 20260507183025 | 12 | 241 | 1.6 | 11.3 | 0.89 | 1.27 | 1.27 | 96 | 1004.0 |
| 20260507181525 | 12 | 200 | 1.6 | 12.9 | 1.07 | 1.14 | 1.14 | 96 | 1004.0 |
| 20260507180024 | 12 | 199 | 11.3 | 16.1 | 0.89 | 0.91 | 0.91 | 95 | 1004.3 |
| 20260507174524 | 13 | 180 | 6.4 | 24.1 | 0.64 | 0.66 | 0.66 | 95 | 1004.6 |
| 20260507173126 | 13 | 198 | 9.7 | 24.1 | 0.38 | 0.38 | 0.38 | 94 | 1004.1 |
| 20260507171518 | 13 | 186 | 6.4 | 25.7 | 0.08 | 0.08 | 0.08 | 93 | 1003.8 |
| 20260507170020 | 13 | 155 | 12.9 | 33.8 | 0.05 | 0.05 | 0.05 | 92 | 1003.7 |
| 20260507164522 | 14 | 146 | 19.3 | 30.6 | 0.03 | 0.03 | 0.03 | 90 | 1003.9 |
| 20260507163017 | 14 | 105 | 22.5 | 38.6 | 0.00 | 0.00 | 0.00 | 88 | 1004.0 |
| 20260507161513 | 15 | 142 | 20.9 | 38.6 | 0.00 | 0.00 | 0.00 | 85 | 1004.2 |
| 20260507160012 | 16 | 207 | 25.7 | 46.7 | 0.00 | 0.00 | 0.00 | 84 | 1004.4 |
| 20260507154512 | 16 | 123 | 17.7 | 38.6 | 0.00 | 0.00 | 0.00 | 82 | 1004.6 |
| 20260507153009 | 16 | 142 | 20.9 | 61.2 | 0.00 | 0.00 | 0.00 | 81 | 1005.2 |
| 20260507151508 | 16 | 118 | 22.5 | 45.1 | 0.00 | 0.00 | 0.00 | 80 | 1005.3 |
| 20260507150006 | 16 | 135 | 27.4 | 57.9 | 0.00 | 0.00 | 0.00 | 81 | 1005.8 |
| 20260507144504 | 16 | 131 | 8.0 | 49.9 | 0.00 | 0.00 | 0.00 | 82 | 1006.2 |
| 20260507143006 | 16 | 137 | 25.7 | 51.5 | 0.00 | 0.00 | 0.00 | 82 | 1006.0 |
| 20260507141502 | 16 | 140 | 24.1 | 41.8 | 0.00 | 0.00 | 0.00 | 83 | 1006.4 |
| 20260507140001 | 16 | 189 | 24.1 | 49.9 | 0.00 | 0.00 | 0.00 | 84 | 1006.4 |
| 20260507134559 | 16 | 179 | 25.7 | 56.3 | 0.00 | 0.00 | 0.00 | 83 | 1006.6 |
| 20260507133057 | 16 | 187 | 14.5 | 40.2 | 0.00 | 0.00 | 0.00 | 84 | 1006.8 |
| 20260507131601 | 15 | 157 | 14.5 | 37.0 | 0.00 | 0.00 | 0.00 | 86 | 1007.2 |
| 20260507130055 | 15 | 172 | 25.7 | 41.8 | 0.00 | 0.00 | 0.00 | 86 | 1007.3 |
| 20260507124602 | 15 | 148 | 33.8 | 53.1 | 0.00 | 0.00 | 0.00 | 85 | 1007.5 |
| 20260507123049 | 15 | 175 | 20.9 | 45.1 | 0.00 | 0.00 | 0.00 | 88 | 1007.5 |
| 20260507121546 | 14 | 174 | 19.3 | 49.9 | 0.00 | 0.00 | 0.00 | 89 | 1007.3 |
| 20260507120046 | 14 | 133 | 19.3 | 41.8 | 0.00 | 0.00 | 0.00 | 89 | 1007.1 |
| 20260507114602 | 14 | 171 | 22.5 | 45.1 | 0.00 | 0.00 | 0.00 | 90 | 1007.5 |
| 20260507113101 | 14 | 168 | 16.1 | 40.2 | 0.00 | 0.00 | 0.00 | 91 | 1008.1 |
| 20260507111542 | 14 | 166 | 14.5 | 27.4 | 0.00 | 0.00 | 0.00 | 90 | 1008.8 |
| 20260507110039 | 15 | 184 | 16.1 | 40.2 | 0.00 | 0.00 | 0.00 | 89 | 1009.3 |
| 20260507104541 | 14 | 166 | 14.5 | 33.8 | 0.00 | 0.00 | 0.00 | 89 | 1008.6 |
| 20260507103032 | 14 | 123 | 12.9 | 30.6 | 0.00 | 0.00 | 0.00 | 90 | 1009.0 |
| 20260507101530 | 14 | 152 | 12.9 | 38.6 | 0.00 | 0.00 | 0.00 | 90 | 1009.1 |
| 20260507100027 | 13 | 153 | 12.9 | 27.4 | 0.00 | 0.00 | 0.00 | 90 | 1009.8 |
| 20260507094526 | 13 | 142 | 14.5 | 27.4 | 0.00 | 0.00 | 0.00 | 91 | 1010.4 |
| 20260507093028 | 13 | 155 | 8.0 | 25.7 | 0.00 | 0.00 | 0.00 | 92 | 1010.4 |
| 20260507091524 | 13 | 161 | 9.7 | 22.5 | 0.00 | 0.00 | 0.00 | 92 | 1010.5 |
| 20260507090023 | 13 | 151 | 12.9 | 25.7 | 0.00 | 0.00 | 0.00 | 92 | 1010.5 |
| 20260507084519 | 12 | 130 | 14.5 | 25.7 | 0.00 | 0.00 | 0.00 | 92 | 1010.4 |
| 20260507083019 | 12 | 127 | 14.5 | 25.7 | 0.00 | 0.00 | 0.00 | 92 | 1010.6 |
| 20260507081525 | 12 | 139 | 11.3 | 25.7 | 0.00 | 0.00 | 0.00 | 91 | 1010.4 |
| 20260507080014 | 12 | 170 | 12.9 | 30.6 | 0.00 | 0.00 | 0.00 | 90 | 1010.1 |
| 20260507074512 | 13 | 126 | 1.6 | 12.9 | 0.00 | 0.00 | 0.00 | 90 | 1010.8 |
| 20260507073009 | 13 | 152 | 8.0 | 14.5 | 0.00 | 0.00 | 0.00 | 89 | 1011.5 |
| 20260507071506 | 13 | 138 | 3.2 | 25.7 | 0.00 | 0.00 | 0.00 | 89 | 1011.9 |
| 20260507070012 | 13 | 155 | 4.8 | 11.3 | 0.00 | 0.00 | 0.00 | 90 | 1012.3 |
| 20260507064505 | 12 | 10 | 0.0 | 4.8 | 0.00 | 0.00 | 0.00 | 88 | 1012.1 |
| 20260507063007 | 13 | 294 | 1.6 | 4.8 | 0.00 | 0.00 | 0.00 | 88 | 1012.3 |
| 20260507061504 | 12 | 119 | 1.6 | 9.7 | 0.00 | 0.00 | 0.00 | 89 | 1011.9 |
| 20260507060001 | 12 | 335 | 3.2 | 8.0 | 0.00 | 0.00 | 0.00 | 87 | 1012.3 |
| 20260507054559 | 12 | 118 | 4.8 | 14.5 | 0.00 | 0.00 | 0.00 | 86 | 1012.6 |
| 20260507053055 | 12 | 109 | 6.4 | 14.5 | 0.00 | 0.00 | 0.00 | 85 | 1013.2 |
| 20260507051552 | 13 | 140 | 6.4 | 11.3 | 0.00 | 0.00 | 0.00 | 83 | 1013.9 |
| 20260507050048 | 13 | 161 | 9.7 | 19.3 | 0.00 | 0.00 | 0.00 | 82 | 1014.2 |
| 20260507044557 | 13 | 171 | 6.4 | 20.9 | 0.00 | 0.00 | 0.00 | 79 | 1014.6 |
| 20260507043056 | 13 | 163 | 6.4 | 14.5 | 0.00 | 0.00 | 0.00 | 79 | 1014.8 |
| 20260507041539 | 13 | 142 | 6.4 | 14.5 | 0.00 | 0.00 | 0.00 | 78 | 1015.2 |
| 20260507040036 | 14 | 173 | 9.7 | 16.1 | 0.00 | 0.00 | 0.00 | 77 | 1015.7 |
| 20260507034536 | 14 | 156 | 8.0 | 17.7 | 0.00 | 0.00 | 0.00 | 78 | 1016.0 |
| 20260507033034 | 14 | 158 | 8.0 | 19.3 | 0.00 | 0.00 | 0.00 | 78 | 1016.1 |
| 20260507031529 | 14 | 181 | 4.8 | 17.7 | 0.00 | 0.00 | 0.00 | 79 | 1016.4 |
| 20260507030027 | 14 | 138 | 6.4 | 29.0 | 0.00 | 0.00 | 0.00 | 79 | 1016.5 |
| 20260507024526 | 14 | 190 | 9.7 | 27.4 | 0.00 | 0.00 | 0.00 | 79 | 1016.7 |
| 20260507023026 | 14 | 157 | 9.7 | 27.4 | 0.00 | 0.00 | 0.00 | 79 | 1016.9 |
| 20260507021524 | 14 | 151 | 6.4 | 17.7 | 0.00 | 0.00 | 0.00 | 79 | 1017.1 |
| 20260507020042 | 14 | 161 | 4.8 | 19.3 | 0.00 | 0.00 | 0.00 | 80 | 1017.0 |
| 20260507014524 | 14 | 196 | 4.8 | 16.1 | 0.00 | 0.00 | 0.00 | 80 | 1017.2 |
| 20260507013025 | 14 | 192 | 6.4 | 16.1 | 0.00 | 0.00 | 0.00 | 80 | 1017.2 |
| 20260507011535 | 14 | 198 | 9.7 | 16.1 | 0.00 | 0.00 | 0.00 | 79 | 1017.3 |
| 20260507010026 | 15 | 188 | 8.0 | 16.1 | 0.00 | 0.00 | 0.00 | 78 | 1017.5 |
| 20260507004522 | 15 | 161 | 9.7 | 29.0 | 0.00 | 0.00 | 0.00 | 77 | 1017.5 |
| 20260507003021 | 15 | 184 | 8.0 | 20.9 | 0.00 | 0.00 | 0.00 | 77 | 1017.5 |